Tracking 28096 objects as of 28-Sep-2023
HD Live streaming from Space Station
objects crossing your sky now

DELTA 1 DEB

Track DELTA 1 DEB now!
10-day predictions


NORAD ID: 12535
Int'l Code: 1976-077DQ
Perigee: 1,513.7 km
Apogee: 2,171.6 km
Inclination: 102.3 °
Period: 123.5 minutes
Semi major axis: 8213 km
RCS: 0.0443 m2 (small)
Launch date: July 29, 1976
Source: United States (US)
Launch site: AIR FORCE WESTERN TEST RANGE (AFWTR)

Note: This is SATELLITE DEBRIS
Your satellite tracking list
Your tracking list is empty




NASA's NSSDC Master Catalog

Two Line Element Set (TLE):
1 12535U 76077DQ  23271.13051262  .00000013  00000-0  77670-3 0  9992
2 12535 102.3096 320.4524 0400504 331.0203  47.3031 11.66273094947416
Source of the keplerian elements: AFSPC